METEOR 2-11 DEB, 40706

Orbit data source: Space-Track

METEOR 2-11 DEB, 40706 is space debris in LEO originally from a launch on Thu, 05 Jul 1984 UTC launched from the Plesetsk Missile And Space Complex (PKMTR). Debris objects in space refer to the collection of defunct objects orbiting the Earth. Examples of debris include non-operational satellites, rocket bodies, and fragments generated from explosions, collisions, or faulty payload assembly.

Loading next visibility...
METEOR 2-11 DEB details
Identifier
40706, 1984-072H
Orbit
LEO
Last TLE update1 day ago
Origin
Flag of CISVVKO (CIS)
ManufacturerUnknown
MissionSpacecraft
Bus & MotorUnknown
MassUnknown
Launch date (UTC)
1984-07-05 (40 years ago)
Launch vehicleUnknown
Launch site
Plesetsk Missile And Space Complex (PKMTR)
Object type
Payload
Rocket body
Debris
Shape & HBRUnknown
Radar Cross SectionSmall (<0.1 m²)

Expand to show TLE details & history

TLE from 1 day ago
0 METEOR 2-11 DEB
1 40706U 84072H   24360.59414065  .00003585  00000-0  26324-2 0  9997
2 40706  82.5199  86.9390 0016357  88.9631 271.3410 13.95399668514013
Epoch: 2024-12-25T14:15Z
Definitive object data (Epoch: 2024-12-25T14:15:33.752Z)
Latitude0.00006°
Longitude138.46273°
Altitude912.426 km
Speed7.396 km/s
True Right ascension05h 47m 45s
True Declination0° 00' 00"
Sunlit
Object was in full shadow at TLE epoch
Visualization TLE readout
Latitude15.01402°
Longitude139.53605°
Altitude907.959 km
Speed7.401 km/s
Apparent Right ascension05h 36m 35s
Apparent Declination-10° 26' 52"
Sunlit
Object is in full shadow
Visualization observer readout
Local Sidereal Time17:14:21
Azimuth348.977° N
Elevation-60.121°
Doppler factor1
Orbital elements
Apogee altitude918.823 km
Perigee altitude894.99 km
Semi-major axis7,285.043 km
Eccentricity0.0016357
Inclination82.5199°
RAAN86.939°
Arg. of periapsis88.9631°
True anomaly271.15361°
Mean anomaly271.341°
Eccentric anomaly271.2473°
Mean motion3.49056 °/min
BSTAR0.0026324
Orbital period103.14 mins
Loading maneuver chart data...
Loading historical data...
Loading historical data...
Loading historical data...
Loading historical data...
Loading historical data...
Loading historical data...
Loading historical data...

METEOR 2-11 DEB Visibility forecast

Observer location: undefined°, undefined

Span
Click to sort rows by Start time (UTC) header in descending order
Start Az.
Max El. time (UTC)
Max El. Az.
Max El.
End time (UTC)
End Az.
10 mins2024-12-26 18:22:57.143Z338.191° N2024-12-26 18:27:57.143Z259.779° W36.763°2024-12-26 18:32:57.143Z196.636° SSW
9 mins2024-12-27 05:57:57.143Z149.568° SSE2024-12-27 06:01:57.143Z86.235° E32.607°2024-12-27 06:06:57.143Z23.837° NE
7 mins2024-12-27 07:42:57.143Z245.303° WSW2024-12-27 07:45:57.143Z287.902° WNW24.319°2024-12-27 07:49:57.143Z338.48° N
8 mins2024-12-27 16:45:57.143Z27.371° NE2024-12-27 16:48:57.143Z69° E25.375°2024-12-27 16:53:57.143Z130.539° SE
|